Flag for Cameroon Weather past 2 weeks in Douala, Cameroon

Now
88 °F

Scattered clouds.


Feels Like: 100 °F
Forecast: 77 / 94 °F
Wind: 7 mph from Southwest

Location: Douala Obs.

Current Time: Jan 31, 2015 at 5:34:22 PM

Latest Report: Jan 31, 2015 at 5:00 PM


Visibility: 5 mi

Pressure: 29.77 "Hg

Humidity: 70%

Dew point: 77 °F

Location of DoualaLocation

Historic Weather in Douala — Graph

°F

Douala temperature yesterday

Maximum temperature yesterday: 91 °F (at 1:00 PM)
Minimum temperature yesterday: 79 °F (at 12:00 AM)
Average temperature yesterday: 83 °F

Past Weeks' High & Low Weather Summary

 TemperatureHumidityPressure
High93 °F (Jan 20, 2:00 PM)100% (Jan 17, 6:00 AM)29.98 "Hg (Jan 17, 6:00 AM)
Low75 °F (Jan 19, 3:00 AM)33% (Jan 27, 6:00 PM)29.74 "Hg (Jan 24, 4:00 PM)
Average83 °F82%29.84 "Hg
* Reported Jan 16 4:00 PM — Jan 31 4:00 PM, Douala, Weather by CustomWeather, © 2014

Note: Actual official high and low records may vary slightly from our data, if they occured in-between our weather recording intervals... More about our weather records

Advertising

Douala weather history for previous 24 hours

 ConditionsComfort  
Time TempWeatherWind HumidityBarometerVisibility
4:00 PM
Jan 31
90 °FScattered clouds.9 mph67%29.77 "Hg5 mi
3:00 PM91 °FScattered clouds.9 mph59%29.80 "Hg5 mi
2:00 PM91 °FScattered clouds.9 mph59%29.86 "Hg5 mi
1:00 PM91 °FPartly sunny.5 mph63%29.86 "Hg5 mi
12:00 PM90 °FScattered clouds.5 mph63%29.89 "Hg5 mi
11:00 AM88 °FPartly sunny.5 mph70%29.92 "Hg4 mi
10:00 AM84 °FPartly sunny.7 mph79%29.92 "Hg4 mi
9:00 AM82 °FFog.No wind89%29.92 "Hg2 mi
8:00 AM79 °FFog.No wind100%29.89 "Hg1 mi
7:00 AM79 °FFog.No wind94%29.86 "Hg1 mi
6:00 AM77 °FPassing clouds.No wind100%29.86 "Hg4 mi
5:00 AM79 °FPassing clouds.No wind94%29.83 "Hg4 mi
4:00 AM79 °FPassing clouds.No wind94%29.86 "HgN/A
3:00 AM79 °FPassing clouds.No wind94%29.83 "HgN/A
2:00 AM77 °FPassing clouds.No wind100%29.86 "HgN/A
1:00 AM79 °FPassing clouds.No wind94%29.89 "HgN/A
12:00 AM79 °FPassing clouds.No wind94%29.89 "HgN/A
11:00 PM
Jan 30
81 °FPassing clouds.5 mph89%29.89 "HgN/A
10:00 PM81 °FPassing clouds.No wind94%29.86 "HgN/A
9:00 PM81 °FPartly cloudy.No wind94%29.86 "HgN/A
8:00 PM82 °FPartly cloudy.No wind89%29.80 "HgN/A
7:00 PM84 °FPartly cloudy.7 mph79%29.80 "HgN/A
6:00 PM86 °FScattered clouds.9 mph75%29.77 "HgN/A
5:00 PM88 °FScattered clouds.12 mph75%29.77 "HgN/A
Weather by CustomWeather, © 2014

See weather overviewHow to use our weather pages